Погода в Сан-Хуане

Пуэрто-Рико     18°24′56″N   66°03′28″W
темп.,
°C
ветер,
м/с
пор.,
м/с
влажн.,
%
обл.,
%
осадки,
мм/ч
давл.,
гПа
погр.,
м
29 июня, ср
ср2923:00+26в79814 0.8 1020807
02:00+26в79815 0.9 1018816
05:00+26в7108167 0.3 1018834
08:00+28в8107631 0.4 10181066
11:00+29в9107233 0.5 10191120
14:00+29в9107389 0.9 10181130
17:00+28в81075100 0.3 10171052
20:00+27в8108058 1.1 1018797
30 июня, чт
чт3023:00+26в7108374 0.6 1019709
02:00+26в7983100 1.4 1017729
05:00+26в798498 0.8 1017666
08:00+27в797549 1.9 1018924
11:00+29в89708 0.2 10181112
14:00+29в897010 0.3 10161112
17:00+28в897415 0.1 10151008
20:00+27в688016 0.2 1017691
1 июля, пт
пт123:00+26вюв578118 0.8 1017697
02:00+26в688453 1.1 1016605
05:00+25вюв578538 0.6 1016584
08:00+27в687655 1.3 1016907
11:00+29в89717 0.3 10171081
14:00+28в897214 0.7 10161072
17:00+28всв897359 0.0 10141118
20:00+27в7108063 0.1 1016957
2 июля, сб
сб223:00+27в8118117 0.1 1016897
02:00+26в811825 0.4 1014937
05:00+26в8118214 0.2 1014948
08:00+27в8117597 0.5 10151051
11:00+28в91272100 1.3 10161176
14:00+28в9127699 3.3 10161120
17:00+27вюв8979100 3.2 1014887
20:00+26юв6984100 5.1 1016662
3 июля, вс
вс323:00+25юв6987100 0.6 1017676
02:00+25юв5887100 2.3 1016619
05:00+24юв61089100 1.7 1016655
08:00+24ююв51084100 2.8 1018792
11:00+25юв51080100 0.3 1019764
14:00+27юв71065100 0.6 10181421
17:00+23вюв5980100 0.7 1018556
20:00+24в5881100 0.9 1020684